Time,TemperatureF,DewpointF,PressureIn,WindDirection,WindDirectionDegrees,WindSpeedMPH,WindSpeedGustMPH,Humidity,HourlyPrecipIn,Conditions,Clouds,dailyrainin,SoftwareType,DateUTC
2013-03-10 00:00:00,58.2,57.1,29.74,WSW,244,0.0,1.0,96,0.28,,-RA,1.08,VWS V14.01,2013-03-10 06:00:00,
2013-03-10 00:05:00,58.2,57.1,29.75,WSW,245,0.0,0.0,96,0.27,,-RA,0.00,VWS V14.01,2013-03-10 06:05:00,
2013-03-10 00:10:00,58.2,57.1,29.76,WSW,243,0.0,1.0,96,0.26,,-RA,0.00,VWS V14.01,2013-03-10 06:10:00,
2013-03-10 00:15:00,58.2,57.1,29.76,WSW,244,0.0,0.0,96,0.25,,-RA,0.00,VWS V14.01,2013-03-10 06:15:00,
2013-03-10 00:20:00,58.2,57.1,29.76,WSW,243,0.0,0.0,96,0.24,,-RA,0.00,VWS V14.01,2013-03-10 06:20:00,
2013-03-10 00:25:00,58.2,57.1,29.76,WSW,244,0.0,0.0,96,0.25,,-RA,0.01,VWS V14.01,2013-03-10 06:25:00,
2013-03-10 00:30:00,58.2,57.1,29.76,WSW,244,1.0,1.0,96,0.25,,-RA,0.01,VWS V14.01,2013-03-10 06:30:00,
2013-03-10 00:35:00,58.2,57.1,29.76,NNW,344,1.0,1.0,96,0.23,,-RA,0.01,VWS V14.01,2013-03-10 06:35:00,
2013-03-10 00:40:00,58.1,57.0,29.75,NE,45,0.0,1.0,96,0.21,,-RA,0.01,VWS V14.01,2013-03-10 06:40:00,
2013-03-10 00:45:00,58.0,56.9,29.74,NE,44,0.0,2.0,96,0.15,,-RA,0.01,VWS V14.01,2013-03-10 06:45:00,
2013-03-10 00:50:00,58.0,56.9,29.75,NE,46,0.0,0.0,96,0.07,,-RA,0.01,VWS V14.01,2013-03-10 06:50:00,
2013-03-10 00:55:00,57.9,56.8,29.75,NE,44,0.0,1.0,96,0.03,,-RA,0.01,VWS V14.01,2013-03-10 06:55:00,
2013-03-10 00:58:00,57.4,56.3,29.76,North,351,2.0,2.0,96,0.01,,,0.02,VWS V14.01,2013-03-10 06:58:00,
2013-03-10 00:59:00,57.4,56.3,29.76,North,355,2.0,2.0,96,0.03,,,0.02,VWS V14.01,2013-03-10 06:59:00,
2013-03-10 01:00:00,57.9,56.8,29.75,NE,38,0.0,1.0,96,0.02,,,0.01,VWS V14.01,2013-03-10 07:00:00,
2013-03-10 01:05:00,57.9,56.8,29.74,NE,44,1.0,3.0,96,0.01,,,0.01,VWS V14.01,2013-03-10 07:05:00,
2013-03-10 01:10:00,57.8,56.7,29.74,NE,42,0.0,1.0,96,0.01,,,0.01,VWS V14.01,2013-03-10 07:10:00,
2013-03-10 01:15:00,57.7,56.6,29.75,North,360,0.0,1.0,96,0.01,,,0.01,VWS V14.01,2013-03-10 07:15:00,
2013-03-10 01:20:00,57.6,56.5,29.76,North,5,0.0,1.0,96,0.01,,,0.01,VWS V14.01,2013-03-10 07:20:00,
2013-03-10 01:25:00,57.6,56.5,29.77,North,5,0.0,0.0,96,0.01,,,0.01,VWS V14.01,2013-03-10 07:25:00,
2013-03-10 01:30:00,57.6,56.5,29.76,North,5,0.0,0.0,96,0.00,,,0.01,VWS V14.01,2013-03-10 07:30:00,
2013-03-10 01:35:00,57.6,56.5,29.74,NNE,26,0.0,1.0,96,0.01,,,0.02,VWS V14.01,2013-03-10 07:35:00,
2013-03-10 01:40:00,57.6,56.5,29.75,NNE,24,0.0,1.0,96,0.01,,,0.02,VWS V14.01,2013-03-10 07:40:00,
2013-03-10 01:45:00,57.6,56.5,29.76,NNE,24,0.0,1.0,96,0.01,,,0.02,VWS V14.01,2013-03-10 07:45:00,
2013-03-10 01:50:00,57.5,56.4,29.77,NNE,24,0.0,0.0,96,0.01,,,0.02,VWS V14.01,2013-03-10 07:50:00,
2013-03-10 01:55:00,57.4,56.3,29.77,NNE,24,0.0,0.0,96,0.01,,,0.02,VWS V14.01,2013-03-10 07:55:00,
2013-03-10 03:01:00,57.4,56.3,29.76,NE,35,1.0,2.0,96,0.03,,,0.02,VWS V14.01,2013-03-10 08:01:00,
2013-03-10 03:06:00,57.4,56.6,29.75,SW,230,0.0,4.0,97,0.01,,,0.02,VWS V14.01,2013-03-10 08:06:00,
2013-03-10 03:11:00,57.4,56.6,29.76,North,350,1.0,2.0,97,0.01,,,0.02,VWS V14.01,2013-03-10 08:11:00,
2013-03-10 03:16:00,57.5,56.4,29.77,North,350,0.0,1.0,96,0.01,,,0.02,VWS V14.01,2013-03-10 08:16:00,
2013-03-10 03:21:00,57.5,56.4,29.78,North,350,0.0,0.0,96,0.01,,,0.02,VWS V14.01,2013-03-10 08:21:00,
2013-03-10 03:26:00,57.4,56.3,29.78,North,351,0.0,0.0,96,0.01,,,0.02,VWS V14.01,2013-03-10 08:26:00,
2013-03-10 03:31:00,57.3,56.2,29.79,North,350,0.0,0.0,96,0.01,,,0.02,VWS V14.01,2013-03-10 08:31:00,
2013-03-10 03:36:00,57.2,56.1,29.78,North,350,0.0,0.0,96,0.01,,,0.02,VWS V14.01,2013-03-10 08:36:00,
2013-03-10 03:41:00,57.2,56.1,29.79,NNW,344,0.0,1.0,96,0.00,,,0.02,VWS V14.01,2013-03-10 08:41:00,
2013-03-10 03:46:00,57.1,56.0,29.78,NNW,342,0.0,1.0,96,0.00,,,0.02,VWS V14.01,2013-03-10 08:46:00,
2013-03-10 03:51:00,57.0,55.9,29.79,North,351,0.0,1.0,96,0.00,,,0.02,VWS V14.01,2013-03-10 08:51:00,
2013-03-10 03:56:00,56.9,55.8,29.78,NNE,17,0.0,4.0,96,0.00,,,0.02,VWS V14.01,2013-03-10 08:56:00,
2013-03-10 04:01:00,56.8,55.7,29.78,NNE,13,0.0,1.0,96,0.00,,OVC080,0.02,VWS V14.01,2013-03-10 09:01:00,
2013-03-10 04:06:00,56.6,55.5,29.77,NE,38,0.0,1.0,96,0.00,,OVC080,0.02,VWS V14.01,2013-03-10 09:06:00,
2013-03-10 04:11:00,56.5,55.1,29.78,NNW,336,0.0,1.0,95,0.00,,OVC080,0.02,VWS V14.01,2013-03-10 09:11:00,
2013-03-10 04:16:00,56.4,55.0,29.80,SW,226,0.0,1.0,95,0.00,,OVC080,0.02,VWS V14.01,2013-03-10 09:16:00,
2013-03-10 04:21:00,56.3,54.3,29.80,West,273,0.0,0.0,93,0.00,,OVC080,0.02,VWS V14.01,2013-03-10 09:21:00,
2013-03-10 04:26:00,56.0,52.5,29.78,WNW,284,0.0,4.0,88,0.00,,OVC080,0.02,VWS V14.01,2013-03-10 09:26:00,
2013-03-10 04:31:00,55.9,51.8,29.78,NNE,24,1.0,1.0,86,0.00,,OVC080,0.02,VWS V14.01,2013-03-10 09:31:00,
2013-03-10 04:36:00,55.7,51.3,29.78,West,272,1.0,1.0,85,0.00,,OVC080,0.02,VWS V14.01,2013-03-10 09:36:00,
2013-03-10 04:41:00,55.5,50.4,29.79,WNW,303,0.0,2.0,83,0.00,,OVC080,0.02,VWS V14.01,2013-03-10 09:41:00,
2013-03-10 04:46:00,55.4,50.0,29.78,ENE,77,1.0,1.0,82,0.00,,OVC080,0.02,VWS V14.01,2013-03-10 09:46:00,
2013-03-10 04:51:00,55.2,49.2,29.78,WNW,287,1.0,1.0,80,0.00,,OVC080,0.02,VWS V14.01,2013-03-10 09:51:00,
2013-03-10 04:56:00,55.2,49.5,29.79,West,273,0.0,1.0,81,0.00,,OVC080,0.02,VWS V14.01,2013-03-10 09:56:00,
2013-03-10 05:01:00,54.9,48.9,29.78,SW,234,0.0,2.0,80,0.00,,BKN090,0.02,VWS V14.01,2013-03-10 10:01:00,
2013-03-10 05:06:00,54.8,48.4,29.78,WNW,291,0.0,0.0,79,0.00,,BKN090,0.02,VWS V14.01,2013-03-10 10:06:00,
2013-03-10 05:11:00,54.7,48.0,29.78,WSW,253,0.0,1.0,78,0.00,,BKN090,0.02,VWS V14.01,2013-03-10 10:11:00,
2013-03-10 05:16:00,54.7,47.6,29.80,West,276,1.0,1.0,77,0.00,,BKN090,0.02,VWS V14.01,2013-03-10 10:16:00,
2013-03-10 05:21:00,54.8,47.7,29.81,SW,215,0.0,1.0,77,0.00,,BKN090,0.02,VWS V14.01,2013-03-10 10:21:00,
2013-03-10 05:26:00,54.7,47.6,29.82,SSW,195,0.0,1.0,77,0.01,,BKN090,0.03,VWS V14.01,2013-03-10 10:26:00,
2013-03-10 05:31:00,54.3,48.6,29.82,SSE,150,0.0,2.0,81,0.02,,BKN090,0.04,VWS V14.01,2013-03-10 10:31:00,
2013-03-10 05:36:00,53.8,49.1,29.81,SSE,151,0.0,0.0,84,0.02,,BKN090,0.04,VWS V14.01,2013-03-10 10:36:00,
2013-03-10 05:41:00,53.2,49.1,29.80,SSE,150,0.0,0.0,86,0.02,,BKN090,0.04,VWS V14.01,2013-03-10 10:41:00,
2013-03-10 05:46:00,52.7,49.0,29.79,SSE,150,0.0,0.0,87,0.02,,BKN090,0.04,VWS V14.01,2013-03-10 10:46:00,
2013-03-10 05:51:00,52.3,49.2,29.78,SE,137,0.0,1.0,89,0.02,,BKN090,0.04,VWS V14.01,2013-03-10 10:51:00,
2013-03-10 05:56:00,52.0,49.2,29.77,SE,137,0.0,0.0,90,0.02,,BKN090,0.04,VWS V14.01,2013-03-10 10:56:00,
2013-03-10 06:01:00,51.9,49.4,29.77,SE,139,0.0,1.0,91,0.02,,BKN090,0.04,VWS V14.01,2013-03-10 11:01:00,
2013-03-10 06:06:00,51.7,48.9,29.76,SE,139,0.0,0.0,90,0.02,,BKN090,0.04,VWS V14.01,2013-03-10 11:06:00,
2013-03-10 06:11:00,51.5,48.7,29.75,SE,139,0.0,1.0,90,0.02,,BKN090,0.04,VWS V14.01,2013-03-10 11:11:00,
2013-03-10 06:16:00,51.7,49.2,29.75,SE,138,0.0,1.0,91,0.02,,BKN090,0.04,VWS V14.01,2013-03-10 11:16:00,
2013-03-10 06:21:00,51.6,49.1,29.74,SE,139,0.0,0.0,91,0.02,,BKN090,0.04,VWS V14.01,2013-03-10 11:21:00,
2013-03-10 06:26:00,51.4,48.9,29.74,SE,139,0.0,1.0,91,0.02,,BKN090,0.04,VWS V14.01,2013-03-10 11:26:00,
2013-03-10 06:31:00,51.4,48.6,29.73,SE,139,0.0,0.0,90,0.01,,BKN090,0.04,VWS V14.01,2013-03-10 11:31:00,
2013-03-10 06:36:00,51.6,48.8,29.74,West,264,0.0,1.0,90,0.00,,BKN090,0.04,VWS V14.01,2013-03-10 11:36:00,
2013-03-10 06:41:00,51.8,49.0,29.75,SSW,206,1.0,2.0,90,0.01,,BKN090,0.05,VWS V14.01,2013-03-10 11:41:00,
2013-03-10 06:46:00,52.0,48.6,29.74,SSW,202,0.0,1.0,88,0.01,,BKN090,0.05,VWS V14.01,2013-03-10 11:46:00,
2013-03-10 06:51:00,52.0,48.9,29.76,South,187,1.0,1.0,89,0.01,,BKN090,0.05,VWS V14.01,2013-03-10 11:51:00,
2013-03-10 06:56:00,52.0,48.6,29.77,SSW,200,0.0,2.0,88,0.01,,BKN090,0.05,VWS V14.01,2013-03-10 11:56:00,
2013-03-10 07:01:00,52.1,48.7,29.76,SSW,199,1.0,2.0,88,0.01,,BKN090,0.05,VWS V14.01,2013-03-10 12:01:00,
2013-03-10 07:06:00,52.1,48.7,29.76,SSW,198,0.0,1.0,88,0.01,,BKN090,0.05,VWS V14.01,2013-03-10 12:06:00,
2013-03-10 07:11:00,52.0,48.6,29.77,SW,227,0.0,0.0,88,0.01,,BKN090,0.05,VWS V14.01,2013-03-10 12:11:00,
2013-03-10 07:16:00,52.1,49.0,29.80,WSW,250,0.0,1.0,89,0.01,,BKN090,0.05,VWS V14.01,2013-03-10 12:16:00,
2013-03-10 07:21:00,52.1,47.7,29.80,ENE,62,1.0,2.0,85,0.01,,BKN090,0.05,VWS V14.01,2013-03-10 12:21:00,
2013-03-10 07:26:00,52.4,47.4,29.80,NNE,30,0.0,4.0,83,0.01,,BKN090,0.05,VWS V14.01,2013-03-10 12:26:00,
2013-03-10 07:31:00,52.1,46.1,29.81,WSW,243,0.0,10.0,80,0.01,,BKN090,0.05,VWS V14.01,2013-03-10 12:31:00,
2013-03-10 07:36:00,51.8,45.5,29.81,West,273,1.0,3.0,79,0.01,,BKN090,0.05,VWS V14.01,2013-03-10 12:36:00,
2013-03-10 07:41:00,51.6,44.6,29.81,ESE,109,0.0,6.0,77,0.01,,BKN090,0.05,VWS V14.01,2013-03-10 12:41:00,
2013-03-10 07:46:00,51.5,44.2,29.81,WNW,294,1.0,4.0,76,0.00,,BKN090,0.05,VWS V14.01,2013-03-10 12:46:00,
2013-03-10 07:51:00,51.4,44.4,29.83,WSW,246,0.0,2.0,77,0.00,,BKN090,0.05,VWS V14.01,2013-03-10 12:51:00,
2013-03-10 07:56:00,51.3,43.3,29.84,NNW,344,1.0,3.0,74,0.00,,BKN090,0.05,VWS V14.01,2013-03-10 12:56:00,
2013-03-10 08:01:00,51.2,43.6,29.83,NNE,31,0.0,1.0,75,0.00,,OVC120,0.05,VWS V14.01,2013-03-10 13:01:00,
2013-03-10 08:06:00,51.0,42.7,29.85,WNW,288,1.0,3.0,73,0.00,,OVC120,0.05,VWS V14.01,2013-03-10 13:06:00,
2013-03-10 08:11:00,50.9,41.8,29.84,NNW,331,3.0,5.0,71,0.00,,OVC120,0.05,VWS V14.01,2013-03-10 13:11:00,
2013-03-10 08:16:00,50.6,40.4,29.82,WNW,286,3.0,7.0,68,0.00,,OVC120,0.05,VWS V14.01,2013-03-10 13:16:00,
2013-03-10 08:21:00,50.3,39.4,29.85,NNE,24,0.0,5.0,66,0.00,,OVC120,0.05,VWS V14.01,2013-03-10 13:21:00,
2013-03-10 08:26:00,50.0,39.5,29.86,SSW,206,0.0,7.0,67,0.00,,OVC120,0.05,VWS V14.01,2013-03-10 13:26:00,
2013-03-10 08:31:00,49.7,38.4,29.86,WNW,290,2.0,5.0,65,0.00,,OVC120,0.05,VWS V14.01,2013-03-10 13:31:00,
2013-03-10 08:36:00,49.5,38.6,29.84,West,281,2.0,4.0,66,0.00,,OVC120,0.05,VWS V14.01,2013-03-10 13:36:00,
2013-03-10 08:41:00,49.4,38.5,29.84,SW,226,2.0,5.0,66,0.00,,OVC120,0.05,VWS V14.01,2013-03-10 13:41:00,
2013-03-10 08:46:00,49.3,38.0,29.84,NE,43,3.0,5.0,65,0.00,,OVC120,0.05,VWS V14.01,2013-03-10 13:46:00,
2013-03-10 08:51:00,49.3,37.2,29.87,West,271,0.0,4.0,63,0.00,,OVC120,0.05,VWS V14.01,2013-03-10 13:51:00,
2013-03-10 08:56:00,49.2,37.2,29.87,SW,215,1.0,7.0,63,0.00,,OVC120,0.05,VWS V14.01,2013-03-10 13:56:00,
2013-03-10 09:01:00,49.1,36.7,29.87,WSW,256,3.0,7.0,62,0.00,,BKN120,0.05,VWS V14.01,2013-03-10 14:01:00,
2013-03-10 09:06:00,49.0,36.2,29.86,NNE,32,6.0,6.0,61,0.00,,BKN120,0.05,VWS V14.01,2013-03-10 14:06:00,
2013-03-10 09:11:00,48.9,35.6,29.87,NNW,329,1.0,9.0,60,0.00,,BKN120,0.05,VWS V14.01,2013-03-10 14:11:00,
2013-03-10 09:16:00,48.9,35.6,29.88,WSW,244,0.0,0.0,60,0.00,,BKN120,0.05,VWS V14.01,2013-03-10 14:16:00,
2013-03-10 09:21:00,49.1,35.8,29.88,West,259,1.0,6.0,60,0.00,,BKN120,0.05,VWS V14.01,2013-03-10 14:21:00,
2013-03-10 09:26:00,49.5,36.2,29.88,West,260,2.0,3.0,60,0.00,,BKN120,0.05,VWS V14.01,2013-03-10 14:26:00,
2013-03-10 09:31:00,49.7,36.0,29.89,NNW,340,0.0,0.0,59,0.00,,BKN120,0.05,VWS V14.01,2013-03-10 14:31:00,
2013-03-10 09:36:00,49.7,35.1,29.90,West,274,3.0,7.0,57,0.00,,BKN120,0.05,VWS V14.01,2013-03-10 14:36:00,
2013-03-10 09:41:00,49.6,35.9,29.90,WNW,303,1.0,5.0,59,0.00,,BKN120,0.05,VWS V14.01,2013-03-10 14:41:00,
2013-03-10 09:46:00,49.9,35.7,29.90,SSW,194,1.0,1.0,58,0.00,,BKN120,0.05,VWS V14.01,2013-03-10 14:46:00,
2013-03-10 09:51:00,50.5,36.3,29.91,West,265,0.0,5.0,58,0.00,,BKN120,0.05,VWS V14.01,2013-03-10 14:51:00,
2013-03-10 09:56:00,51.1,36.0,29.91,WSW,240,2.0,6.0,56,0.00,,BKN120,0.05,VWS V14.01,2013-03-10 14:56:00,
2013-03-10 10:01:00,51.4,36.2,29.91,WNW,294,1.0,5.0,56,0.00,,SCT120,0.05,VWS V14.01,2013-03-10 15:01:00,
2013-03-10 10:06:00,51.8,36.2,29.91,WNW,287,4.0,5.0,55,0.00,,SCT120,0.05,VWS V14.01,2013-03-10 15:06:00,
2013-03-10 10:11:00,51.7,36.1,29.91,SSE,156,1.0,6.0,55,0.00,,SCT120,0.05,VWS V14.01,2013-03-10 15:11:00,
2013-03-10 10:16:00,51.9,36.7,29.92,WNW,283,0.0,5.0,56,0.00,,SCT120,0.05,VWS V14.01,2013-03-10 15:16:00,
2013-03-10 10:21:00,52.2,37.4,29.92,West,280,1.0,6.0,57,0.00,,SCT120,0.05,VWS V14.01,2013-03-10 15:21:00,
2013-03-10 10:26:00,52.5,36.8,29.92,West,271,1.0,1.0,55,0.00,,SCT120,0.05,VWS V14.01,2013-03-10 15:26:00,
2013-03-10 10:31:00,52.6,36.9,29.92,East,89,3.0,6.0,55,0.00,,SCT120,0.05,VWS V14.01,2013-03-10 15:31:00,
2013-03-10 10:36:00,52.6,37.4,29.93,ENE,61,3.0,7.0,56,0.00,,SCT120,0.05,VWS V14.01,2013-03-10 15:36:00,
2013-03-10 10:41:00,53.0,37.7,29.93,NNW,327,1.0,7.0,56,0.00,,SCT120,0.05,VWS V14.01,2013-03-10 15:41:00,
2013-03-10 10:46:00,52.8,38.0,29.93,SW,223,5.0,5.0,57,0.00,,SCT120,0.05,VWS V14.01,2013-03-10 15:46:00,
2013-03-10 10:51:00,53.0,37.3,29.94,NNE,28,1.0,8.0,55,0.00,,SCT120,0.05,VWS V14.01,2013-03-10 15:51:00,
2013-03-10 10:56:00,53.3,37.1,29.93,NNW,327,2.0,2.0,54,0.00,,SCT120,0.05,VWS V14.01,2013-03-10 15:56:00,
2013-03-10 11:01:00,53.8,37.1,29.94,ENE,61,9.0,9.0,53,0.00,,SCT120,0.05,VWS V14.01,2013-03-10 16:01:00,
2013-03-10 11:06:00,53.3,36.6,29.94,West,259,5.0,9.0,53,0.00,,SCT120,0.05,VWS V14.01,2013-03-10 16:06:00,
2013-03-10 11:11:00,52.8,37.5,29.94,NE,38,1.0,5.0,56,0.00,,SCT120,0.05,VWS V14.01,2013-03-10 16:11:00,
2013-03-10 11:16:00,52.8,36.6,29.94,South,190,0.0,11.0,54,0.00,,SCT120,0.05,VWS V14.01,2013-03-10 16:16:00,
2013-03-10 11:21:00,53.1,36.9,29.94,South,178,1.0,5.0,54,0.00,,SCT120,0.05,VWS V14.01,2013-03-10 16:21:00,
2013-03-10 11:26:00,53.2,37.5,29.94,NNW,348,1.0,7.0,55,0.00,,SCT120,0.05,VWS V14.01,2013-03-10 16:26:00,
2013-03-10 11:31:00,53.6,38.3,29.94,WNW,284,1.0,3.0,56,0.00,,SCT120,0.05,VWS V14.01,2013-03-10 16:31:00,
2013-03-10 11:36:00,53.3,37.6,29.95,West,273,0.0,6.0,55,0.00,,SCT120,0.05,VWS V14.01,2013-03-10 16:36:00,
2013-03-10 11:41:00,52.8,36.6,29.95,West,272,2.0,6.0,54,0.00,,SCT120,0.05,VWS V14.01,2013-03-10 16:41:00,
2013-03-10 11:46:00,52.2,36.5,29.95,ENE,73,0.0,5.0,55,0.00,,SCT120,0.05,VWS V14.01,2013-03-10 16:46:00,
2013-03-10 11:51:00,51.7,36.5,29.96,WSW,240,3.0,3.0,56,0.00,,SCT120,0.05,VWS V14.01,2013-03-10 16:51:00,
2013-03-10 11:56:00,51.8,37.5,29.96,West,268,0.0,3.0,58,0.00,,SCT120,0.05,VWS V14.01,2013-03-10 16:56:00,
2013-03-10 12:01:00,52.5,37.7,29.96,ENE,63,2.0,7.0,57,0.00,,BKN041,0.05,VWS V14.01,2013-03-10 17:01:00,
2013-03-10 12:06:00,52.8,37.1,29.96,WNW,303,3.0,6.0,55,0.00,,BKN041,0.05,VWS V14.01,2013-03-10 17:06:00,
2013-03-10 12:11:00,52.7,37.5,29.97,SSE,149,1.0,5.0,56,0.00,,BKN041,0.05,VWS V14.01,2013-03-10 17:11:00,
2013-03-10 12:16:00,53.1,36.9,29.97,West,269,1.0,5.0,54,0.00,,BKN041,0.05,VWS V14.01,2013-03-10 17:16:00,
2013-03-10 12:21:00,53.1,37.4,29.97,WSW,249,0.0,5.0,55,0.00,,BKN041,0.05,VWS V14.01,2013-03-10 17:21:00,
2013-03-10 12:26:00,53.7,37.9,29.97,West,268,2.0,8.0,55,0.00,,BKN041,0.05,VWS V14.01,2013-03-10 17:26:00,
2013-03-10 12:31:00,53.6,37.4,29.98,SE,138,1.0,3.0,54,0.00,,BKN041,0.05,VWS V14.01,2013-03-10 17:31:00,
2013-03-10 12:36:00,53.8,38.5,29.98,ESE,102,0.0,9.0,56,0.00,,BKN041,0.05,VWS V14.01,2013-03-10 17:36:00,
2013-03-10 12:41:00,54.9,38.1,29.99,WNW,284,4.0,7.0,53,0.00,,BKN041,0.05,VWS V14.01,2013-03-10 17:41:00,
2013-03-10 12:46:00,55.2,38.4,29.99,East,92,3.0,7.0,53,0.00,,BKN041,0.05,VWS V14.01,2013-03-10 17:46:00,
2013-03-10 12:51:00,55.0,37.2,29.99,SE,136,1.0,6.0,51,0.00,,BKN041,0.05,VWS V14.01,2013-03-10 17:51:00,
2013-03-10 12:56:00,55.0,37.7,29.99,West,269,1.0,5.0,52,0.00,,BKN041,0.05,VWS V14.01,2013-03-10 17:56:00,
2013-03-10 13:01:00,53.5,36.8,30.00,ENE,63,4.0,10.0,53,0.00,,BKN039,0.05,VWS V14.01,2013-03-10 18:01:00,
2013-03-10 13:06:00,52.6,36.0,30.00,WSW,257,0.0,4.0,53,0.00,,BKN039,0.05,VWS V14.01,2013-03-10 18:06:00,
2013-03-10 13:11:00,51.8,36.2,30.00,South,176,1.0,5.0,55,0.00,,BKN039,0.05,VWS V14.01,2013-03-10 18:11:00,
2013-03-10 13:16:00,51.3,36.6,30.00,WNW,283,1.0,3.0,57,0.00,,BKN039,0.05,VWS V14.01,2013-03-10 18:16:00,
2013-03-10 13:21:00,50.9,36.7,29.99,SW,230,0.0,6.0,58,0.00,,BKN039,0.05,VWS V14.01,2013-03-10 18:21:00,
2013-03-10 13:26:00,50.8,36.6,29.99,West,271,2.0,7.0,58,0.00,,BKN039,0.05,VWS V14.01,2013-03-10 18:26:00,
2013-03-10 13:31:00,50.9,36.7,29.99,NNW,345,1.0,5.0,58,0.00,,BKN039,0.05,VWS V14.01,2013-03-10 18:31:00,
2013-03-10 13:36:00,50.7,36.5,29.99,West,279,2.0,5.0,58,0.00,,BKN039,0.05,VWS V14.01,2013-03-10 18:36:00,
2013-03-10 13:41:00,50.9,35.8,29.99,ESE,108,0.0,7.0,56,0.00,,BKN039,0.05,VWS V14.01,2013-03-10 18:41:00,
2013-03-10 13:46:00,50.9,35.8,29.99,South,191,1.0,5.0,56,0.00,,BKN039,0.05,VWS V14.01,2013-03-10 18:46:00,
2013-03-10 13:51:00,50.8,35.2,29.98,ENE,68,2.0,7.0,55,0.00,,BKN039,0.05,VWS V14.01,2013-03-10 18:51:00,
2013-03-10 13:56:00,51.5,35.4,29.98,NNE,26,6.0,6.0,54,0.00,,BKN039,0.05,VWS V14.01,2013-03-10 18:56:00,
2013-03-10 14:01:00,51.8,35.7,29.98,SW,230,2.0,9.0,54,0.00,,OVC045,0.05,VWS V14.01,2013-03-10 19:01:00,
2013-03-10 14:06:00,52.1,35.5,29.98,NNE,17,6.0,6.0,53,0.00,,OVC045,0.05,VWS V14.01,2013-03-10 19:06:00,
2013-03-10 14:11:00,52.0,34.9,29.98,WNW,294,1.0,11.0,52,0.00,,OVC045,0.05,VWS V14.01,2013-03-10 19:11:00,
2013-03-10 14:16:00,53.0,36.3,29.98,West,279,7.0,7.0,53,0.00,,OVC045,0.05,VWS V14.01,2013-03-10 19:16:00,
2013-03-10 14:21:00,53.6,36.4,29.98,WNW,283,1.0,7.0,52,0.00,,OVC045,0.05,VWS V14.01,2013-03-10 19:21:00,
2013-03-10 14:26:00,53.2,35.6,29.98,SW,217,1.0,8.0,51,0.00,,OVC045,0.05,VWS V14.01,2013-03-10 19:26:00,
2013-03-10 14:31:00,53.6,35.9,29.97,ENE,58,3.0,11.0,51,0.00,,OVC045,0.05,VWS V14.01,2013-03-10 19:31:00,
2013-03-10 14:36:00,53.4,35.2,29.97,West,269,2.0,7.0,50,0.00,,OVC045,0.05,VWS V14.01,2013-03-10 19:36:00,
2013-03-10 14:41:00,53.5,36.3,29.97,WNW,294,1.0,6.0,52,0.00,,OVC045,0.05,VWS V14.01,2013-03-10 19:41:00,
2013-03-10 14:46:00,53.7,36.0,29.97,NNW,327,1.0,8.0,51,0.00,,OVC045,0.05,VWS V14.01,2013-03-10 19:46:00,
2013-03-10 14:51:00,53.3,36.1,29.98,NNW,333,0.0,1.0,52,0.00,,OVC045,0.05,VWS V14.01,2013-03-10 19:51:00,
2013-03-10 14:56:00,53.1,36.0,29.98,NE,55,4.0,5.0,52,0.00,,OVC045,0.05,VWS V14.01,2013-03-10 19:56:00,
2013-03-10 15:01:00,52.4,34.8,29.98,WSW,255,0.0,4.0,51,0.00,,BKN041,0.05,VWS V14.01,2013-03-10 20:01:00,
2013-03-10 15:06:00,52.8,35.7,29.98,SSW,211,1.0,2.0,52,0.00,,BKN041,0.05,VWS V14.01,2013-03-10 20:06:00,
2013-03-10 15:11:00,53.2,35.1,29.98,NNE,31,2.0,10.0,50,0.00,,BKN041,0.05,VWS V14.01,2013-03-10 20:11:00,
2013-03-10 15:16:00,52.2,33.6,29.98,WNW,294,5.0,5.0,49,0.00,,BKN041,0.05,VWS V14.01,2013-03-10 20:16:00,
2013-03-10 15:22:00,52.0,34.5,29.98,NW,308,2.0,4.0,51,0.00,,BKN041,0.05,VWS V14.01,2013-03-10 20:22:00,
2013-03-10 15:27:00,51.8,34.3,29.98,NE,55,0.0,2.0,51,0.00,,BKN041,0.05,VWS V14.01,2013-03-10 20:27:00,
2013-03-10 15:32:00,51.8,35.2,29.98,NW,317,1.0,3.0,53,0.00,,BKN041,0.05,VWS V14.01,2013-03-10 20:32:00,
2013-03-10 15:37:00,51.8,34.8,29.99,WSW,254,1.0,3.0,52,0.00,,BKN041,0.05,VWS V14.01,2013-03-10 20:37:00,
2013-03-10 15:42:00,51.3,33.8,29.99,NNW,337,3.0,8.0,51,0.00,,BKN041,0.05,VWS V14.01,2013-03-10 20:42:00,
2013-03-10 15:47:00,51.1,34.1,29.99,ESE,117,5.0,5.0,52,0.00,,BKN041,0.05,VWS V14.01,2013-03-10 20:47:00,
2013-03-10 15:52:00,50.7,34.2,30.00,NNW,330,2.0,4.0,53,0.00,,BKN041,0.05,VWS V14.01,2013-03-10 20:52:00,
2013-03-10 15:57:00,50.7,33.7,30.00,NW,308,5.0,7.0,52,0.00,,BKN041,0.05,VWS V14.01,2013-03-10 20:57:00,
2013-03-10 16:02:00,50.5,34.0,30.00,SW,223,0.0,2.0,53,0.00,,BKN043,0.05,VWS V14.01,2013-03-10 21:02:00,
2013-03-10 16:07:00,50.8,33.8,30.00,NNW,342,4.0,6.0,52,0.00,,BKN043,0.05,VWS V14.01,2013-03-10 21:07:00,
2013-03-10 16:12:00,50.9,34.4,29.99,SSE,157,1.0,2.0,53,0.00,,BKN043,0.05,VWS V14.01,2013-03-10 21:12:00,
2013-03-10 16:17:00,51.1,34.1,30.00,WNW,303,3.0,8.0,52,0.00,,BKN043,0.05,VWS V14.01,2013-03-10 21:17:00,
2013-03-10 16:22:00,51.4,34.4,29.99,North,11,2.0,4.0,52,0.00,,BKN043,0.05,VWS V14.01,2013-03-10 21:22:00,
2013-03-10 16:27:00,51.3,33.3,29.99,NNE,15,4.0,10.0,50,0.00,,BKN043,0.05,VWS V14.01,2013-03-10 21:27:00,
2013-03-10 16:32:00,51.4,33.9,29.99,ENE,65,5.0,6.0,51,0.00,,BKN043,0.05,VWS V14.01,2013-03-10 21:32:00,
2013-03-10 16:38:00,51.4,32.9,30.00,NE,38,2.0,9.0,49,0.00,,BKN043,0.05,VWS V14.01,2013-03-10 21:38:00,
2013-03-10 16:43:00,51.9,33.4,29.99,SSW,202,2.0,6.0,49,0.00,,BKN043,0.05,VWS V14.01,2013-03-10 21:43:00,
2013-03-10 16:48:00,52.0,33.5,30.00,NE,52,4.0,6.0,49,0.00,,BKN043,0.05,VWS V14.01,2013-03-10 21:48:00,
2013-03-10 16:53:00,51.8,33.3,30.00,East,88,7.0,7.0,49,0.00,,BKN043,0.05,VWS V14.01,2013-03-10 21:53:00,
2013-03-10 16:58:00,51.7,32.7,30.00,NNW,331,1.0,6.0,48,0.00,,BKN043,0.05,VWS V14.01,2013-03-10 21:58:00,
2013-03-10 17:03:00,51.7,33.7,30.00,WSW,246,1.0,4.0,50,0.00,,BKN046,0.05,VWS V14.01,2013-03-10 22:03:00,
2013-03-10 17:08:00,51.6,33.6,30.00,ENE,61,1.0,6.0,50,0.00,,BKN046,0.05,VWS V14.01,2013-03-10 22:08:00,
2013-03-10 17:13:00,52.0,33.5,30.00,NE,55,9.0,11.0,49,0.00,,BKN046,0.05,VWS V14.01,2013-03-10 22:13:00,
2013-03-10 17:18:00,51.4,32.9,30.00,SW,230,2.0,5.0,49,0.00,,BKN046,0.05,VWS V14.01,2013-03-10 22:18:00,
2013-03-10 17:23:00,51.5,33.0,30.00,NNE,27,4.0,4.0,49,0.00,,BKN046,0.05,VWS V14.01,2013-03-10 22:23:00,
2013-03-10 17:28:00,51.5,33.5,30.00,ESE,111,3.0,8.0,50,0.00,,BKN046,0.05,VWS V14.01,2013-03-10 22:28:00,
2013-03-10 17:33:00,51.9,33.4,30.00,WSW,249,2.0,7.0,49,0.00,,BKN046,0.05,VWS V14.01,2013-03-10 22:33:00,
2013-03-10 17:38:00,51.7,32.7,30.00,North,5,3.0,7.0,48,0.00,,BKN046,0.05,VWS V14.01,2013-03-10 22:38:00,
2013-03-10 17:43:00,51.2,32.7,30.00,NNW,348,3.0,9.0,49,0.00,,BKN046,0.05,VWS V14.01,2013-03-10 22:43:00,
2013-03-10 17:48:00,51.0,33.0,30.01,ENE,63,11.0,11.0,50,0.00,,BKN046,0.05,VWS V14.01,2013-03-10 22:48:00,
2013-03-10 17:53:00,51.0,32.5,30.00,NNE,33,2.0,6.0,49,0.00,,BKN046,0.05,VWS V14.01,2013-03-10 22:53:00,
2013-03-10 17:58:00,51.1,32.1,30.01,West,273,1.0,4.0,48,0.00,,BKN046,0.05,VWS V14.01,2013-03-10 22:58:00,
2013-03-10 18:03:00,50.8,32.3,30.01,NNE,17,2.0,3.0,49,0.00,,BKN047,0.05,VWS V14.01,2013-03-10 23:03:00,
2013-03-10 18:08:00,50.6,32.2,30.01,NNW,348,6.0,9.0,49,0.00,,BKN047,0.05,VWS V14.01,2013-03-10 23:08:00,
2013-03-10 18:13:00,50.2,32.3,30.01,East,89,1.0,8.0,50,0.00,,BKN047,0.05,VWS V14.01,2013-03-10 23:13:00,
2013-03-10 18:18:00,49.7,31.3,30.02,NNE,24,2.0,5.0,49,0.00,,BKN047,0.05,VWS V14.01,2013-03-10 23:18:00,
2013-03-10 18:23:00,49.1,31.3,30.02,NE,47,3.0,5.0,50,0.00,,BKN047,0.05,VWS V14.01,2013-03-10 23:23:00,
2013-03-10 18:28:00,48.4,30.6,30.02,NNW,348,1.0,9.0,50,0.00,,BKN047,0.05,VWS V14.01,2013-03-10 23:28:00,
2013-03-10 18:33:00,48.3,31.0,30.02,ESE,112,2.0,3.0,51,0.00,,BKN047,0.05,VWS V14.01,2013-03-10 23:33:00,
2013-03-10 18:38:00,48.2,30.9,30.03,East,87,1.0,5.0,51,0.00,,BKN047,0.05,VWS V14.01,2013-03-10 23:38:00,
2013-03-10 18:43:00,48.0,30.8,30.03,ENE,67,12.0,12.0,51,0.00,,BKN047,0.05,VWS V14.01,2013-03-10 23:43:00,
2013-03-10 18:48:00,47.8,30.6,30.03,WNW,298,4.0,7.0,51,0.00,,BKN047,0.05,VWS V14.01,2013-03-10 23:48:00,
2013-03-10 18:53:00,47.7,30.5,30.03,NNE,33,1.0,5.0,51,0.00,,BKN047,0.05,VWS V14.01,2013-03-10 23:53:00,
2013-03-10 18:58:00,47.7,30.5,30.03,NW,317,4.0,4.0,51,0.00,,BKN047,0.05,VWS V14.01,2013-03-10 23:58:00,
2013-03-10 19:03:00,47.6,30.9,30.04,NNW,334,5.0,8.0,52,0.00,,SCT047,0.05,VWS V14.01,2013-03-11 00:03:00,
2013-03-10 19:08:00,47.5,30.8,30.04,NNW,344,0.0,6.0,52,0.00,,SCT047,0.05,VWS V14.01,2013-03-11 00:08:00,
2013-03-10 19:13:00,47.4,30.7,30.05,NE,55,3.0,4.0,52,0.00,,SCT047,0.05,VWS V14.01,2013-03-11 00:13:00,
2013-03-10 19:18:00,47.3,31.0,30.04,West,259,0.0,5.0,53,0.00,,SCT047,0.05,VWS V14.01,2013-03-11 00:18:00,
2013-03-10 19:23:00,47.1,30.9,30.05,ENE,62,0.0,2.0,53,0.00,,SCT047,0.05,VWS V14.01,2013-03-11 00:23:00,
2013-03-10 19:28:00,46.9,30.7,30.05,SW,230,0.0,4.0,53,0.00,,SCT047,0.05,VWS V14.01,2013-03-11 00:28:00,
2013-03-10 19:33:00,46.8,31.0,30.05,NNE,17,2.0,5.0,54,0.00,,SCT047,0.05,VWS V14.01,2013-03-11 00:33:00,
2013-03-10 19:38:00,46.7,31.0,30.06,SW,236,0.0,2.0,54,0.00,,SCT047,0.05,VWS V14.01,2013-03-11 00:38:00,
2013-03-10 19:43:00,46.5,30.8,30.06,NW,324,0.0,2.0,54,0.00,,SCT047,0.05,VWS V14.01,2013-03-11 00:43:00,
2013-03-10 19:48:00,46.4,31.1,30.06,West,281,0.0,0.0,55,0.00,,SCT047,0.05,VWS V14.01,2013-03-11 00:48:00,
2013-03-10 19:53:00,46.1,30.9,30.06,NNW,341,0.0,2.0,55,0.00,,SCT047,0.05,VWS V14.01,2013-03-11 00:53:00,
2013-03-10 19:58:00,45.9,30.7,30.07,NNE,16,1.0,5.0,55,0.00,,SCT047,0.05,VWS V14.01,2013-03-11 00:58:00,
2013-03-10 20:03:00,46.0,30.8,30.07,NNE,17,2.0,5.0,55,0.00,,FEW047,0.05,VWS V14.01,2013-03-11 01:03:00,
2013-03-10 20:08:00,46.0,30.8,30.07,NNE,27,2.0,2.0,55,0.00,,FEW047,0.05,VWS V14.01,2013-03-11 01:08:00,
2013-03-10 20:14:00,46.0,30.8,30.07,NNE,27,0.0,4.0,55,0.00,,FEW047,0.05,VWS V14.01,2013-03-11 01:14:00,
2013-03-10 20:19:00,46.0,30.3,30.07,NW,325,1.0,4.0,54,0.00,,FEW047,0.05,VWS V14.01,2013-03-11 01:19:00,
2013-03-10 20:24:00,46.0,30.8,30.07,NNE,22,1.0,3.0,55,0.00,,FEW047,0.05,VWS V14.01,2013-03-11 01:24:00,
2013-03-10 20:29:00,45.8,31.0,30.08,NE,36,0.0,1.0,56,0.00,,FEW047,0.05,VWS V14.01,2013-03-11 01:29:00,
2013-03-10 20:34:00,45.6,30.8,30.08,NNE,28,0.0,1.0,56,0.00,,FEW047,0.05,VWS V14.01,2013-03-11 01:34:00,
2013-03-10 20:39:00,45.4,30.6,30.08,NE,46,2.0,3.0,56,0.00,,FEW047,0.05,VWS V14.01,2013-03-11 01:39:00,
2013-03-10 20:44:00,45.3,30.5,30.08,NNE,12,1.0,2.0,56,0.00,,FEW047,0.05,VWS V14.01,2013-03-11 01:44:00,
2013-03-10 20:49:00,45.1,30.8,30.08,NNE,26,0.0,1.0,57,0.00,,FEW047,0.05,VWS V14.01,2013-03-11 01:49:00,
2013-03-10 20:54:00,44.8,30.5,30.09,NNE,31,1.0,1.0,57,0.00,,FEW047,0.05,VWS V14.01,2013-03-11 01:54:00,
2013-03-10 20:59:00,44.7,30.4,30.09,NNE,16,0.0,1.0,57,0.00,,FEW047,0.05,VWS V14.01,2013-03-11 01:59:00,
2013-03-10 21:04:00,44.7,30.9,30.09,NE,39,0.0,1.0,58,0.00,,FEW047,0.05,VWS V14.01,2013-03-11 02:04:00,
2013-03-10 21:09:00,44.5,30.7,30.09,NNW,333,0.0,1.0,58,0.00,,FEW047,0.05,VWS V14.01,2013-03-11 02:09:00,
2013-03-10 21:14:00,44.4,31.0,30.10,North,349,0.0,1.0,59,0.00,,FEW047,0.05,VWS V14.01,2013-03-11 02:14:00,
2013-03-10 21:19:00,44.1,30.7,30.10,NNW,337,0.0,1.0,59,0.00,,FEW047,0.05,VWS V14.01,2013-03-11 02:19:00,
2013-03-10 21:24:00,44.1,30.7,30.10,NNW,338,0.0,1.0,59,0.00,,FEW047,0.05,VWS V14.01,2013-03-11 02:24:00,
2013-03-10 21:29:00,44.1,30.7,30.10,North,11,1.0,2.0,59,0.00,,FEW047,0.05,VWS V14.01,2013-03-11 02:29:00,
2013-03-10 21:34:00,43.9,30.9,30.11,NNE,16,0.0,2.0,60,0.00,,FEW047,0.05,VWS V14.01,2013-03-11 02:34:00,
2013-03-10 21:39:00,43.7,31.1,30.11,NNE,17,1.0,1.0,61,0.00,,FEW047,0.05,VWS V14.01,2013-03-11 02:39:00,
2013-03-10 21:44:00,43.5,31.0,30.11,NNE,17,0.0,0.0,61,0.00,,FEW047,0.05,VWS V14.01,2013-03-11 02:44:00,
2013-03-10 21:49:00,43.0,31.3,30.11,NNE,17,0.0,0.0,63,0.00,,FEW047,0.05,VWS V14.01,2013-03-11 02:49:00,
2013-03-10 21:54:00,42.5,31.2,30.11,NNE,18,0.0,0.0,64,0.00,,FEW047,0.05,VWS V14.01,2013-03-11 02:54:00,
2013-03-10 21:59:00,41.9,31.4,30.11,NNE,17,0.0,0.0,66,0.00,,FEW047,0.05,VWS V14.01,2013-03-11 02:59:00,
2013-03-10 22:04:00,41.5,31.4,30.11,NNE,17,0.0,0.0,67,0.00,,CLR,0.05,VWS V14.01,2013-03-11 03:04:00,
2013-03-10 22:09:00,40.9,31.2,30.11,NNE,17,0.0,0.0,68,0.00,,CLR,0.05,VWS V14.01,2013-03-11 03:09:00,
2013-03-10 22:14:00,40.7,31.3,30.11,NNE,17,0.0,0.0,69,0.00,,CLR,0.05,VWS V14.01,2013-03-11 03:14:00,
2013-03-10 22:19:00,40.4,31.4,30.12,NNE,17,0.0,0.0,70,0.00,,CLR,0.05,VWS V14.01,2013-03-11 03:19:00,
2013-03-10 22:24:00,40.2,31.6,30.12,NNE,17,0.0,0.0,71,0.00,,CLR,0.05,VWS V14.01,2013-03-11 03:24:00,
2013-03-10 22:30:00,39.8,31.5,30.12,NNE,18,0.0,0.0,72,0.00,,CLR,0.05,VWS V14.01,2013-03-11 03:30:00,
2013-03-10 22:35:00,39.5,31.6,30.12,NNE,17,0.0,0.0,73,0.00,,CLR,0.05,VWS V14.01,2013-03-11 03:35:00,
2013-03-10 22:40:00,39.3,31.7,30.12,NNE,17,0.0,0.0,74,0.00,,CLR,0.05,VWS V14.01,2013-03-11 03:40:00,
2013-03-10 22:45:00,38.9,31.7,30.12,NNE,17,0.0,0.0,75,0.00,,CLR,0.05,VWS V14.01,2013-03-11 03:45:00,
2013-03-10 22:50:00,38.5,31.6,30.11,NNE,17,0.0,0.0,76,0.00,,CLR,0.05,VWS V14.01,2013-03-11 03:50:00,
2013-03-10 22:55:00,38.0,31.4,30.11,NNE,17,0.0,0.0,77,0.00,,CLR,0.05,VWS V14.01,2013-03-11 03:55:00,
2013-03-10 23:00:00,37.8,31.9,30.11,NNE,17,0.0,0.0,79,0.00,,CLR,0.05,VWS V14.01,2013-03-11 04:00:00,
2013-03-10 23:05:00,37.9,32.0,30.11,NNE,17,0.0,0.0,79,0.00,,CLR,0.05,VWS V14.01,2013-03-11 04:05:00,
2013-03-10 23:10:00,37.7,31.5,30.11,NNE,17,0.0,0.0,78,0.00,,CLR,0.05,VWS V14.01,2013-03-11 04:10:00,
2013-03-10 23:15:00,37.3,31.4,30.11,NNE,17,0.0,0.0,79,0.00,,CLR,0.05,VWS V14.01,2013-03-11 04:15:00,
2013-03-10 23:20:00,37.2,31.6,30.10,NNE,17,0.0,0.0,80,0.00,,CLR,0.05,VWS V14.01,2013-03-11 04:20:00,
2013-03-10 23:25:00,37.1,31.5,30.10,NNE,17,0.0,0.0,80,0.00,,CLR,0.05,VWS V14.01,2013-03-11 04:25:00,
2013-03-10 23:30:00,36.9,31.3,30.10,NNE,17,0.0,0.0,80,0.00,,CLR,0.05,VWS V14.01,2013-03-11 04:30:00,
2013-03-10 23:35:00,36.6,31.0,30.10,NNE,17,0.0,0.0,80,0.00,,CLR,0.05,VWS V14.01,2013-03-11 04:35:00,
2013-03-10 23:40:00,36.2,30.9,30.09,NNE,17,0.0,0.0,81,0.00,,CLR,0.05,VWS V14.01,2013-03-11 04:40:00,
2013-03-10 23:45:00,35.9,30.6,30.09,NNE,18,0.0,0.0,81,0.00,,CLR,0.05,VWS V14.01,2013-03-11 04:45:00,
2013-03-10 23:50:00,35.8,31.1,30.09,NNE,17,0.0,0.0,83,0.00,,CLR,0.05,VWS V14.01,2013-03-11 04:50:00,
2013-03-10 23:55:00,35.9,31.2,30.09,NNE,18,0.0,0.0,83,0.00,,CLR,0.05,VWS V14.01,2013-03-11 04:55:00,